TimeCST,TemperatureF,Dew PointF,Humidity,Sea Level PressureIn,VisibilityMPH,Wind Direction,Wind SpeedMPH,Gust SpeedMPH,PrecipitationIn,Events,Conditions,WindDirDegrees,DateUTC
12:15 AM,26.6,23.0,86,29.67,9.0,WNW,19.6,26.5,N/A,,Mostly Cloudy,300,2014-01-24 06:15:00
12:35 AM,28.4,23.0,80,29.67,10.0,WNW,20.7,27.6,N/A,,Mostly Cloudy,300,2014-01-24 06:35:00
12:55 AM,28.4,23.0,80,29.67,10.0,NW,15.0,24.2,N/A,,Overcast,310,2014-01-24 06:55:00
1:15 AM,26.6,23.0,86,29.66,10.0,NW,16.1,-,N/A,,Overcast,310,2014-01-24 07:15:00
1:35 AM,28.4,23.0,80,29.67,10.0,NW,17.3,21.9,N/A,,Overcast,310,2014-01-24 07:35:00
1:55 AM,28.4,23.0,80,29.67,10.0,NW,17.3,-,N/A,,Overcast,320,2014-01-24 07:55:00
2:15 AM,28.4,23.0,80,29.67,10.0,NW,13.8,-,N/A,,Overcast,310,2014-01-24 08:15:00
2:35 AM,28.4,23.0,80,29.68,10.0,NW,13.8,-,N/A,,Overcast,310,2014-01-24 08:35:00
2:55 AM,28.4,23.0,80,29.68,10.0,NW,13.8,20.7,N/A,,Overcast,310,2014-01-24 08:55:00
3:15 AM,28.4,23.0,80,29.68,10.0,NW,13.8,-,N/A,,Overcast,310,2014-01-24 09:15:00
3:35 AM,28.4,23.0,80,29.68,10.0,WNW,11.5,-,N/A,,Overcast,300,2014-01-24 09:35:00
3:55 AM,28.4,23.0,80,29.68,10.0,WNW,10.4,21.9,N/A,,Overcast,300,2014-01-24 09:55:00
4:15 AM,28.4,23.0,80,29.67,10.0,WNW,10.4,-,N/A,,Overcast,290,2014-01-24 10:15:00
4:35 AM,28.4,23.0,80,29.68,10.0,West,10.4,-,N/A,,Overcast,280,2014-01-24 10:35:00
4:55 AM,26.6,23.0,86,29.68,10.0,West,12.7,-,N/A,,Overcast,280,2014-01-24 10:55:00
5:15 AM,26.6,23.0,86,29.66,10.0,West,12.7,-,N/A,,Overcast,280,2014-01-24 11:15:00
5:35 AM,26.6,21.2,80,29.67,10.0,WNW,13.8,-,N/A,,Overcast,290,2014-01-24 11:35:00
5:55 AM,26.6,21.2,80,29.66,10.0,WNW,10.4,-,N/A,,Overcast,300,2014-01-24 11:55:00
6:15 AM,26.6,21.2,80,29.66,10.0,WNW,11.5,-,N/A,,Overcast,300,2014-01-24 12:15:00
6:35 AM,26.6,21.2,80,29.65,10.0,WNW,10.4,-,N/A,,Overcast,290,2014-01-24 12:35:00
6:55 AM,26.6,21.2,80,29.64,10.0,West,11.5,-,N/A,,Overcast,280,2014-01-24 12:55:00
7:15 AM,26.6,21.2,80,29.64,10.0,WNW,12.7,-,N/A,,Overcast,290,2014-01-24 13:15:00
7:35 AM,26.6,21.2,80,29.63,10.0,WNW,11.5,-,N/A,,Overcast,290,2014-01-24 13:35:00
7:55 AM,26.6,21.2,80,29.63,10.0,WNW,10.4,-,N/A,,Overcast,290,2014-01-24 13:55:00
8:15 AM,26.6,21.2,80,29.61,10.0,West,9.2,-,N/A,,Overcast,280,2014-01-24 14:15:00
8:35 AM,26.6,21.2,80,29.61,10.0,West,8.1,-,N/A,,Overcast,280,2014-01-24 14:35:00
8:55 AM,26.6,23.0,86,29.61,10.0,West,8.1,-,N/A,,Overcast,260,2014-01-24 14:55:00
9:15 AM,26.6,23.0,86,29.59,10.0,West,8.1,-,N/A,,Overcast,260,2014-01-24 15:15:00
9:35 AM,26.6,23.0,86,29.58,10.0,West,6.9,-,N/A,,Overcast,270,2014-01-24 15:35:00
9:55 AM,26.6,23.0,86,29.57,10.0,West,6.9,-,N/A,,Overcast,260,2014-01-24 15:55:00
10:15 AM,28.4,23.0,80,29.56,10.0,West,6.9,-,N/A,,Overcast,270,2014-01-24 16:15:00
10:35 AM,28.4,23.0,80,29.55,10.0,West,5.8,-,N/A,,Scattered Clouds,280,2014-01-24 16:35:00
10:55 AM,28.4,24.8,86,29.54,10.0,NW,5.8,-,N/A,,Mostly Cloudy,310,2014-01-24 16:55:00
11:15 AM,32.0,24.8,75,29.54,10.0,NW,12.7,-,N/A,,Overcast,310,2014-01-24 17:15:00
11:35 AM,32.0,26.6,80,29.53,10.0,NW,13.8,20.7,N/A,,Overcast,310,2014-01-24 17:35:00
11:55 AM,32.0,26.6,80,29.53,3.0,NW,17.3,21.9,N/A,Snow,Light Snow,310,2014-01-24 17:55:00
12:15 PM,32.0,28.4,87,29.53,0.8,NW,13.8,18.4,0.03,Snow,Light Snow,320,2014-01-24 18:15:00
12:35 PM,32.0,28.4,87,29.52,1.0,NW,15.0,19.6,0.08,Snow,Light Snow,310,2014-01-24 18:35:00
12:55 PM,32.0,28.4,87,29.52,4.0,NW,15.0,-,0.10,Snow,Light Snow,320,2014-01-24 18:55:00
1:15 PM,32.0,28.4,87,29.51,10.0,NW,17.3,23.0,N/A,,Mostly Cloudy,320,2014-01-24 19:15:00
1:35 PM,32.0,28.4,87,29.51,10.0,NW,17.3,23.0,N/A,,Scattered Clouds,320,2014-01-24 19:35:00
1:55 PM,32.0,28.4,87,29.51,10.0,NNW,17.3,24.2,N/A,,Mostly Cloudy,330,2014-01-24 19:55:00
2:15 PM,32.0,26.6,80,29.51,10.0,NNW,16.1,21.9,N/A,,Overcast,330,2014-01-24 20:15:00
2:35 PM,32.0,26.6,80,29.51,10.0,NNW,10.4,-,N/A,,Overcast,330,2014-01-24 20:35:00
2:55 PM,32.0,28.4,87,29.52,3.0,NNW,25.3,34.5,N/A,Rain,Light Rain,330,2014-01-24 20:55:00
3:15 PM,32.0,28.4,87,29.54,1.0,NNW,23.0,32.2,N/A,Rain,Light Rain,340,2014-01-24 21:15:00
3:35 PM,28.4,26.6,93,29.56,1.2,North,20.7,35.7,N/A,Rain,Freezing Rain,350,2014-01-24 21:35:00
3:55 PM,28.4,24.8,86,29.57,2.0,North,25.3,33.4,0.01,Rain,Freezing Rain,350,2014-01-24 21:55:00
4:15 PM,26.6,23.0,86,29.59,3.0,North,21.9,34.5,N/A,Rain,Freezing Rain,350,2014-01-24 22:15:00
4:35 PM,24.8,19.4,80,29.61,3.0,NNW,25.3,35.7,N/A,Rain,Freezing Rain,340,2014-01-24 22:35:00
4:55 PM,24.8,17.6,74,29.63,7.0,North,23.0,35.7,N/A,Rain,Freezing Rain,350,2014-01-24 22:55:00
5:15 PM,23.0,17.6,80,29.65,10.0,North,21.9,31.1,N/A,Rain,Freezing Rain,350,2014-01-24 23:15:00
5:35 PM,21.2,17.6,86,29.68,10.0,North,17.3,26.5,N/A,,Overcast,360,2014-01-24 23:35:00
5:55 PM,19.4,15.8,86,29.69,10.0,North,18.4,27.6,N/A,,Mostly Cloudy,360,2014-01-24 23:55:00
6:15 PM,17.6,14.0,86,29.70,10.0,North,16.1,-,N/A,,Scattered Clouds,360,2014-01-25 00:15:00
6:35 PM,17.6,12.2,79,29.72,10.0,North,16.1,23.0,N/A,,Clear,360,2014-01-25 00:35:00
6:55 PM,15.8,10.4,79,29.73,10.0,North,15.0,21.9,N/A,,Partly Cloudy,350,2014-01-25 00:55:00
7:15 PM,14.0,10.4,86,29.75,10.0,North,16.1,20.7,N/A,Snow,Light Snow,360,2014-01-25 01:15:00
7:35 PM,14.0,8.6,79,29.77,8.0,North,15.0,21.9,N/A,Rain,Freezing Rain,360,2014-01-25 01:35:00
7:55 PM,14.0,5.0,67,29.78,10.0,North,16.1,25.3,N/A,,Mostly Cloudy,360,2014-01-25 01:55:00
8:15 PM,10.4,5.0,79,29.79,10.0,North,11.5,-,N/A,,Mostly Cloudy,350,2014-01-25 02:15:00
8:35 PM,10.4,3.2,73,29.80,10.0,North,11.5,17.3,N/A,,Partly Cloudy,350,2014-01-25 02:35:00
8:55 PM,8.6,-2.2,62,29.81,10.0,North,13.8,20.7,N/A,,Clear,350,2014-01-25 02:55:00
9:15 PM,6.8,-2.2,67,29.82,10.0,NNW,10.4,-,N/A,,Clear,340,2014-01-25 03:15:00
9:35 PM,6.8,-2.2,67,29.82,10.0,NNW,15.0,-,N/A,,Clear,340,2014-01-25 03:35:00
9:55 PM,6.8,-4.0,61,29.83,10.0,NNW,13.8,-,N/A,,Clear,340,2014-01-25 03:55:00
10:15 PM,5.0,-4.0,66,29.83,10.0,NNW,10.4,-,N/A,,Clear,330,2014-01-25 04:15:00
10:35 PM,6.8,-4.0,61,29.84,10.0,NW,12.7,-,N/A,,Clear,320,2014-01-25 04:35:00
10:55 PM,6.8,-4.0,61,29.84,10.0,NNW,23.0,32.2,N/A,,Clear,340,2014-01-25 04:55:00
11:15 PM,6.8,-5.8,56,29.86,10.0,NNW,18.4,26.5,N/A,,Clear,340,2014-01-25 05:15:00
11:35 PM,5.0,-5.8,61,29.86,10.0,NNW,16.1,24.2,N/A,,Clear,330,2014-01-25 05:35:00
11:55 PM,5.0,-4.0,66,29.87,10.0,NNW,23.0,32.2,N/A,,Clear,340,2014-01-25 05:55:00